Location: Bremen
(53.0793°N, 8.8017°E)
Time: 12:51:46
(UTC+02:00)

Transit 2A Rocket - Pass Details

Date: 19 June 2024
Orbit: 582 x 910 km, 66.7° (Epoch: 19 July)

Event Time Altitude Azimuth Distance (km) Brightness Sun altitude
Rises 23:34:20 0° 233° (SW) 3,149 8.1 -9.7°
Reaches altitude 10° 23:36:39 10° 237° (WSW) 2,280 7.4 -9.9°
Maximum altitude 23:41:50 59° 317° (NW) 931 5.8 -10.2°
Drops below altitude 10° 23:47:34 10° 37° (NE) 2,501 8.1 -10.5°
Sets 23:50:11 0° 42° (NE) 3,479 8.8 -10.7°
